Time,TemperatureF,DewpointF,PressureIn,WindDirection,WindDirectionDegrees,WindSpeedMPH,WindSpeedGustMPH,Humidity,HourlyPrecipIn,Conditions,Clouds,dailyrainin,SoftwareType,DateUTC
2013-12-08 00:01:00,22.6,18.0,29.97,NNW,337,0.0,0.0,80,0.00,,,0.00,Rainwise IP-100,2013-12-08 05:01:00,
2013-12-08 00:02:00,22.6,18.0,29.97,NNW,337,0.0,0.0,80,0.00,,,0.00,Rainwise IP-100,2013-12-08 05:02:00,
2013-12-08 00:07:00,22.3,18.0,29.97,NNW,337,1.4,2.0,81,0.00,,,0.00,Rainwise IP-100,2013-12-08 05:07:00,
2013-12-08 00:12:00,22.0,18.0,29.97,NNW,337,1.6,2.0,82,0.00,,,0.00,Rainwise IP-100,2013-12-08 05:12:00,
2013-12-08 00:17:00,21.9,18.0,29.97,NNW,337,0.0,2.0,82,0.00,,,0.00,Rainwise IP-100,2013-12-08 05:17:00,
2013-12-08 00:23:00,22.1,18.0,29.97,NNW,337,0.0,0.0,83,0.00,,,0.00,Rainwise IP-100,2013-12-08 05:23:00,
2013-12-08 00:28:00,22.4,18.0,29.97,NNW,337,0.0,0.0,83,0.00,,,0.00,Rainwise IP-100,2013-12-08 05:28:00,
2013-12-08 00:33:00,22.7,18.0,29.97,NNW,337,0.0,0.0,83,0.00,,,0.00,Rainwise IP-100,2013-12-08 05:33:00,
2013-12-08 00:38:00,23.0,18.0,29.98,NNW,337,0.0,0.0,82,0.00,,,0.00,Rainwise IP-100,2013-12-08 05:38:00,
2013-12-08 00:43:00,22.9,18.0,29.98,NNW,337,0.0,0.0,82,0.00,,,0.00,Rainwise IP-100,2013-12-08 05:43:00,
2013-12-08 00:48:00,22.9,18.0,29.98,WNW,292,0.0,0.0,82,0.00,,,0.00,Rainwise IP-100,2013-12-08 05:48:00,
2013-12-08 00:53:00,22.8,18.0,29.98,WNW,292,0.0,0.0,82,0.00,,,0.00,Rainwise IP-100,2013-12-08 05:53:00,
2013-12-08 00:58:00,22.6,18.0,29.98,WNW,292,0.0,0.0,82,0.00,,,0.00,Rainwise IP-100,2013-12-08 05:58:00,
2013-12-08 01:03:00,22.3,18.0,29.98,WNW,292,0.0,0.0,83,0.00,,,0.00,Rainwise IP-100,2013-12-08 06:03:00,
2013-12-08 01:08:00,22.0,18.0,29.98,WNW,292,0.0,0.0,83,0.00,,,0.00,Rainwise IP-100,2013-12-08 06:08:00,
2013-12-08 01:13:00,21.9,18.0,29.98,WNW,292,0.0,1.0,84,0.00,,,0.00,Rainwise IP-100,2013-12-08 06:13:00,
2013-12-08 01:18:00,21.6,18.0,29.98,WNW,292,0.0,1.0,85,0.00,,,0.00,Rainwise IP-100,2013-12-08 06:18:00,
2013-12-08 01:23:00,21.7,18.0,29.98,WNW,292,1.4,1.4,85,0.00,,,0.00,Rainwise IP-100,2013-12-08 06:23:00,
2013-12-08 01:28:00,21.8,18.0,29.98,WNW,292,1.9,1.9,85,0.00,,,0.00,Rainwise IP-100,2013-12-08 06:28:00,
2013-12-08 01:33:00,21.9,18.0,29.99,West,270,2.3,3.0,85,0.00,,,0.00,Rainwise IP-100,2013-12-08 06:33:00,
2013-12-08 01:39:00,22.2,18.0,29.99,West,270,0.0,5.0,84,0.00,,,0.00,Rainwise IP-100,2013-12-08 06:39:00,
2013-12-08 01:44:00,22.1,18.0,29.99,NNE,22,2.8,7.0,84,0.00,,,0.00,Rainwise IP-100,2013-12-08 06:44:00,
2013-12-08 01:49:00,21.5,18.0,29.99,NNW,337,2.3,4.0,85,0.00,,,0.00,Rainwise IP-100,2013-12-08 06:49:00,
2013-12-08 01:54:00,21.5,18.0,29.99,NNW,337,0.0,2.0,85,0.00,,,0.00,Rainwise IP-100,2013-12-08 06:54:00,
2013-12-08 01:59:00,21.6,18.0,29.99,NNW,337,0.0,0.0,85,0.00,,,0.00,Rainwise IP-100,2013-12-08 06:59:00,
2013-12-08 02:04:00,21.5,18.0,29.98,NNW,337,0.0,0.0,85,0.00,,,0.00,Rainwise IP-100,2013-12-08 07:04:00,
2013-12-08 02:09:00,21.4,16.0,29.99,NNW,337,0.0,0.0,86,0.00,,,0.00,Rainwise IP-100,2013-12-08 07:09:00,
2013-12-08 02:14:00,21.4,16.0,29.99,NNW,337,0.0,0.0,85,0.00,,,0.00,Rainwise IP-100,2013-12-08 07:14:00,
2013-12-08 02:19:00,21.5,18.0,29.99,NNW,337,0.0,3.0,85,0.00,,,0.00,Rainwise IP-100,2013-12-08 07:19:00,
2013-12-08 02:24:00,21.6,18.0,29.99,NNW,337,1.2,2.0,85,0.00,,,0.00,Rainwise IP-100,2013-12-08 07:24:00,
2013-12-08 02:29:00,21.6,18.0,29.99,NNW,337,1.4,1.4,85,0.00,,,0.00,Rainwise IP-100,2013-12-08 07:29:00,
2013-12-08 02:34:00,21.4,16.0,29.99,NNW,337,1.9,2.0,85,0.00,,,0.00,Rainwise IP-100,2013-12-08 07:34:00,
2013-12-08 02:39:00,21.2,16.0,30.00,NNW,337,1.2,2.0,85,0.00,,,0.00,Rainwise IP-100,2013-12-08 07:39:00,
2013-12-08 02:44:00,21.1,16.0,30.00,NNW,337,0.0,1.0,86,0.00,,,0.00,Rainwise IP-100,2013-12-08 07:44:00,
2013-12-08 02:49:00,21.0,18.0,30.00,NNW,337,0.0,0.0,87,0.00,,,0.00,Rainwise IP-100,2013-12-08 07:49:00,
2013-12-08 02:55:00,21.0,18.0,30.00,NNW,337,1.4,2.0,87,0.00,,,0.00,Rainwise IP-100,2013-12-08 07:55:00,
2013-12-08 03:00:00,21.0,18.0,30.00,North,360,1.9,3.0,87,0.00,,,0.00,Rainwise IP-100,2013-12-08 08:00:00,
2013-12-08 03:05:00,21.1,16.0,30.00,North,360,0.0,2.0,86,0.00,,,0.00,Rainwise IP-100,2013-12-08 08:05:00,
2013-12-08 03:10:00,21.3,16.0,30.01,North,360,1.4,2.0,86,0.00,,,0.00,Rainwise IP-100,2013-12-08 08:10:00,
2013-12-08 03:15:00,21.5,18.0,30.01,North,360,0.0,2.0,85,0.00,,,0.00,Rainwise IP-100,2013-12-08 08:15:00,
2013-12-08 03:20:00,21.7,18.0,30.01,North,360,0.0,1.0,85,0.00,,,0.00,Rainwise IP-100,2013-12-08 08:20:00,
2013-12-08 03:25:00,21.8,18.0,30.01,WNW,292,1.2,0.0,85,0.00,,,0.00,Rainwise IP-100,2013-12-08 08:25:00,
2013-12-08 03:30:00,22.0,18.0,30.01,WNW,292,0.0,1.0,85,0.00,,,0.00,Rainwise IP-100,2013-12-08 08:30:00,
2013-12-08 03:35:00,22.2,18.0,30.01,WNW,292,0.0,1.0,85,0.00,,,0.00,Rainwise IP-100,2013-12-08 08:35:00,
2013-12-08 03:40:00,22.2,18.0,30.01,WNW,292,0.0,0.0,85,0.00,,,0.00,Rainwise IP-100,2013-12-08 08:40:00,
2013-12-08 03:45:00,22.3,18.0,30.01,WNW,292,0.0,1.0,84,0.00,,,0.00,Rainwise IP-100,2013-12-08 08:45:00,
2013-12-08 03:50:00,22.5,18.0,30.01,WNW,292,0.0,1.0,83,0.00,,,0.00,Rainwise IP-100,2013-12-08 08:50:00,
2013-12-08 03:55:00,22.7,18.0,30.01,NNW,337,1.4,5.0,81,0.00,,,0.00,Rainwise IP-100,2013-12-08 08:55:00,
2013-12-08 04:00:00,22.8,16.0,30.02,WNW,292,1.4,3.0,79,0.00,,,0.00,Rainwise IP-100,2013-12-08 09:00:00,
2013-12-08 04:05:00,23.0,16.0,30.01,NNW,337,0.0,2.0,78,0.00,,,0.00,Rainwise IP-100,2013-12-08 09:05:00,
2013-12-08 04:11:00,23.1,16.0,30.02,NNW,337,0.0,0.0,77,0.00,,,0.00,Rainwise IP-100,2013-12-08 09:11:00,
2013-12-08 04:16:00,23.3,16.0,30.02,NNW,337,4.7,4.7,77,0.00,,,0.00,Rainwise IP-100,2013-12-08 09:16:00,
2013-12-08 04:21:00,23.3,16.0,30.02,NNW,337,0.0,4.0,74,0.00,,,0.00,Rainwise IP-100,2013-12-08 09:21:00,
2013-12-08 04:26:00,23.3,16.0,30.02,NNW,337,0.0,2.0,72,0.00,,,0.00,Rainwise IP-100,2013-12-08 09:26:00,
2013-12-08 04:31:00,23.3,16.0,30.02,NNW,337,0.0,1.0,73,0.00,,,0.00,Rainwise IP-100,2013-12-08 09:31:00,
2013-12-08 04:36:00,23.3,16.0,30.02,NNW,337,0.0,1.0,73,0.00,,,0.00,Rainwise IP-100,2013-12-08 09:36:00,
2013-12-08 04:41:00,23.3,16.0,30.03,NNW,337,1.6,3.0,73,0.00,,,0.00,Rainwise IP-100,2013-12-08 09:41:00,
2013-12-08 04:46:00,23.5,16.0,30.03,North,360,3.0,3.0,71,0.00,,,0.00,Rainwise IP-100,2013-12-08 09:46:00,
2013-12-08 04:51:00,23.7,16.0,30.03,NNE,22,1.6,3.0,69,0.00,,,0.00,Rainwise IP-100,2013-12-08 09:51:00,
2013-12-08 04:56:00,23.7,16.0,30.03,NNE,22,2.6,2.6,69,0.00,,,0.00,Rainwise IP-100,2013-12-08 09:56:00,
2013-12-08 05:01:00,23.6,16.0,30.03,NNE,22,2.6,3.0,70,0.00,,,0.00,Rainwise IP-100,2013-12-08 10:01:00,
2013-12-08 05:06:00,23.5,16.0,30.03,NNE,22,3.0,4.0,70,0.00,,,0.00,Rainwise IP-100,2013-12-08 10:06:00,
2013-12-08 05:11:00,23.5,16.0,30.04,North,360,4.9,4.9,69,0.00,,,0.00,Rainwise IP-100,2013-12-08 10:11:00,
2013-12-08 05:16:00,23.6,16.0,30.03,North,360,2.8,6.0,67,0.00,,,0.00,Rainwise IP-100,2013-12-08 10:16:00,
2013-12-08 05:21:00,23.7,16.0,30.03,NNW,337,5.4,6.0,66,0.00,,,0.00,Rainwise IP-100,2013-12-08 10:21:00,
2013-12-08 05:27:00,23.7,16.0,30.03,NNE,22,3.0,6.0,66,0.00,,,0.00,Rainwise IP-100,2013-12-08 10:27:00,
2013-12-08 05:32:00,23.6,14.0,30.04,NNW,337,4.9,6.0,65,0.00,,,0.00,Rainwise IP-100,2013-12-08 10:32:00,
2013-12-08 05:37:00,23.5,14.0,30.04,NNE,22,2.1,5.0,65,0.00,,,0.00,Rainwise IP-100,2013-12-08 10:37:00,
2013-12-08 05:42:00,23.5,14.0,30.04,NE,45,4.2,7.0,65,0.00,,,0.00,Rainwise IP-100,2013-12-08 10:42:00,
2013-12-08 05:47:00,23.5,14.0,30.05,NNE,22,4.7,6.0,64,0.00,,,0.00,Rainwise IP-100,2013-12-08 10:47:00,
2013-12-08 05:52:00,23.5,14.0,30.05,NNE,22,4.7,7.0,64,0.00,,,0.00,Rainwise IP-100,2013-12-08 10:52:00,
2013-12-08 05:57:00,23.6,14.0,30.06,NNE,22,5.4,5.4,64,0.00,,,0.00,Rainwise IP-100,2013-12-08 10:57:00,
2013-12-08 06:02:00,23.5,14.0,30.06,North,360,2.1,8.0,63,0.00,,,0.00,Rainwise IP-100,2013-12-08 11:02:00,
2013-12-08 06:07:00,23.5,14.0,30.06,NNW,337,1.6,5.0,63,0.00,,,0.00,Rainwise IP-100,2013-12-08 11:07:00,
2013-12-08 06:12:00,23.4,14.0,30.06,NNW,337,2.1,5.0,63,0.00,,,0.00,Rainwise IP-100,2013-12-08 11:12:00,
2013-12-08 06:17:00,23.4,11.0,30.06,North,360,2.6,5.0,62,0.00,,,0.00,Rainwise IP-100,2013-12-08 11:17:00,
2013-12-08 06:22:00,23.3,11.0,30.06,NNE,22,4.9,5.0,62,0.00,,,0.00,Rainwise IP-100,2013-12-08 11:22:00,
2013-12-08 06:27:00,23.4,11.0,30.06,North,360,0.0,4.0,62,0.00,,,0.00,Rainwise IP-100,2013-12-08 11:27:00,
2013-12-08 06:32:00,23.4,11.0,30.07,North,360,0.0,3.0,62,0.00,,,0.00,Rainwise IP-100,2013-12-08 11:32:00,
2013-12-08 06:37:00,23.3,11.0,30.06,NNE,22,0.0,5.0,62,0.00,,,0.00,Rainwise IP-100,2013-12-08 11:37:00,
2013-12-08 06:43:00,23.3,11.0,30.07,NNE,22,1.6,6.0,62,0.00,,,0.00,Rainwise IP-100,2013-12-08 11:43:00,
2013-12-08 06:48:00,23.4,11.0,30.07,NNE,22,1.9,4.0,62,0.00,,,0.00,Rainwise IP-100,2013-12-08 11:48:00,
2013-12-08 06:53:00,23.4,11.0,30.07,NNE,22,1.4,3.0,62,0.00,,,0.00,Rainwise IP-100,2013-12-08 11:53:00,
2013-12-08 06:58:00,23.4,11.0,30.07,NNE,22,3.0,4.0,62,0.00,,,0.00,Rainwise IP-100,2013-12-08 11:58:00,
2013-12-08 07:03:00,23.3,11.0,30.08,NNE,22,3.3,6.0,62,0.00,,,0.00,Rainwise IP-100,2013-12-08 12:03:00,
2013-12-08 07:08:00,23.3,11.0,30.08,NNW,337,0.0,5.0,61,0.00,,,0.00,Rainwise IP-100,2013-12-08 12:08:00,
2013-12-08 07:13:00,23.3,11.0,30.08,North,360,3.3,4.0,61,0.00,,,0.00,Rainwise IP-100,2013-12-08 12:13:00,
2013-12-08 07:18:00,23.3,11.0,30.08,NNE,22,4.2,7.0,61,0.00,,,0.00,Rainwise IP-100,2013-12-08 12:18:00,
2013-12-08 07:23:00,23.3,11.0,30.07,NNE,22,3.5,7.0,61,0.00,,,0.00,Rainwise IP-100,2013-12-08 12:23:00,
2013-12-08 07:28:00,23.3,11.0,30.07,NNE,22,4.9,7.0,61,0.00,,,0.00,Rainwise IP-100,2013-12-08 12:28:00,
2013-12-08 07:33:00,23.3,11.0,30.07,North,360,1.9,7.0,61,0.00,,,0.00,Rainwise IP-100,2013-12-08 12:33:00,
2013-12-08 07:38:00,23.3,11.0,30.08,NNE,22,3.3,7.0,61,0.00,,,0.00,Rainwise IP-100,2013-12-08 12:38:00,
2013-12-08 07:43:00,23.3,11.0,30.08,NNE,22,3.0,7.0,60,0.00,,,0.00,Rainwise IP-100,2013-12-08 12:43:00,
2013-12-08 07:48:00,23.3,11.0,30.08,North,360,3.5,7.0,60,0.00,,,0.00,Rainwise IP-100,2013-12-08 12:48:00,
2013-12-08 07:53:00,23.3,11.0,30.08,NNE,22,4.4,5.0,60,0.00,,,0.00,Rainwise IP-100,2013-12-08 12:53:00,
2013-12-08 07:59:00,23.4,11.0,30.08,NNE,22,5.6,5.6,60,0.00,,,0.00,Rainwise IP-100,2013-12-08 12:59:00,
2013-12-08 08:04:00,23.4,11.0,30.08,NNE,22,4.4,6.0,60,0.00,,,0.00,Rainwise IP-100,2013-12-08 13:04:00,
2013-12-08 08:09:00,23.3,11.0,30.09,ENE,67,0.0,5.0,60,0.00,,,0.00,Rainwise IP-100,2013-12-08 13:09:00,
2013-12-08 08:14:00,23.4,11.0,30.09,NNE,22,2.3,5.0,59,0.00,,,0.00,Rainwise IP-100,2013-12-08 13:14:00,
2013-12-08 08:19:00,23.5,14.0,30.09,NNE,22,3.3,6.0,59,0.00,,,0.00,Rainwise IP-100,2013-12-08 13:19:00,
2013-12-08 08:24:00,23.5,14.0,30.08,NNE,22,1.9,7.0,59,0.00,,,0.00,Rainwise IP-100,2013-12-08 13:24:00,
2013-12-08 08:29:00,23.6,14.0,30.08,NNE,22,2.8,7.0,58,0.00,,,0.00,Rainwise IP-100,2013-12-08 13:29:00,
2013-12-08 08:34:00,23.6,14.0,30.08,North,360,5.8,7.0,58,0.00,,,0.00,Rainwise IP-100,2013-12-08 13:34:00,
2013-12-08 08:39:00,23.7,14.0,30.08,NNE,22,2.6,6.0,58,0.00,,,0.00,Rainwise IP-100,2013-12-08 13:39:00,
2013-12-08 08:44:00,23.7,14.0,30.08,NNE,22,2.6,6.0,58,0.00,,,0.00,Rainwise IP-100,2013-12-08 13:44:00,
2013-12-08 08:49:00,23.7,14.0,30.09,NNE,22,5.6,6.0,58,0.00,,,0.00,Rainwise IP-100,2013-12-08 13:49:00,
2013-12-08 08:54:00,23.7,11.0,30.09,North,360,2.6,6.0,57,0.00,,,0.00,Rainwise IP-100,2013-12-08 13:54:00,
2013-12-08 08:59:00,23.7,11.0,30.09,North,360,5.4,7.0,57,0.00,,,0.00,Rainwise IP-100,2013-12-08 13:59:00,
2013-12-08 09:04:00,23.8,11.0,30.09,NNE,22,7.7,7.7,57,0.00,,,0.00,Rainwise IP-100,2013-12-08 14:04:00,
2013-12-08 09:09:00,23.9,11.0,30.09,NNE,22,3.0,8.0,57,0.00,,,0.00,Rainwise IP-100,2013-12-08 14:09:00,
2013-12-08 09:15:00,23.9,11.0,30.10,NNE,22,2.1,5.0,57,0.00,,,0.00,Rainwise IP-100,2013-12-08 14:15:00,
2013-12-08 09:20:00,23.9,14.0,30.09,NNE,22,3.0,6.0,58,0.00,,,0.00,Rainwise IP-100,2013-12-08 14:20:00,
2013-12-08 09:25:00,24.0,11.0,30.10,NNE,22,1.9,5.0,57,0.00,,,0.00,Rainwise IP-100,2013-12-08 14:25:00,
2013-12-08 09:30:00,24.1,14.0,30.10,North,360,5.4,7.0,58,0.00,,,0.00,Rainwise IP-100,2013-12-08 14:30:00,
2013-12-08 09:35:00,24.2,11.0,30.10,NNE,22,2.8,6.0,57,0.00,,,0.00,Rainwise IP-100,2013-12-08 14:35:00,
2013-12-08 09:40:00,24.2,11.0,30.10,ENE,67,2.8,7.0,57,0.00,,,0.00,Rainwise IP-100,2013-12-08 14:40:00,
2013-12-08 09:45:00,24.3,11.0,30.11,NE,45,4.7,5.0,57,0.00,,,0.00,Rainwise IP-100,2013-12-08 14:45:00,
2013-12-08 09:50:00,24.3,11.0,30.11,NNE,22,1.9,5.0,57,0.00,,,0.00,Rainwise IP-100,2013-12-08 14:50:00,
2013-12-08 09:55:00,24.4,11.0,30.11,NE,45,2.6,6.0,57,0.00,,,0.00,Rainwise IP-100,2013-12-08 14:55:00,
2013-12-08 10:00:00,24.6,14.0,30.11,ENE,67,4.0,6.0,57,0.00,,,0.00,Rainwise IP-100,2013-12-08 15:00:00,
2013-12-08 10:05:00,24.7,14.0,30.10,NNW,337,0.0,7.0,57,0.00,,,0.00,Rainwise IP-100,2013-12-08 15:05:00,
2013-12-08 10:10:00,24.8,14.0,30.11,NE,45,4.2,7.0,57,0.00,,,0.00,Rainwise IP-100,2013-12-08 15:10:00,
2013-12-08 10:15:00,24.7,14.0,30.10,NNE,22,0.0,6.0,57,0.00,,,0.00,Rainwise IP-100,2013-12-08 15:15:00,
2013-12-08 10:20:00,24.8,14.0,30.10,ENE,67,4.0,6.0,57,0.00,,,0.00,Rainwise IP-100,2013-12-08 15:20:00,
2013-12-08 10:25:00,25.0,14.0,30.10,ENE,67,4.2,6.0,57,0.00,,,0.00,Rainwise IP-100,2013-12-08 15:25:00,
2013-12-08 10:31:00,25.2,14.0,30.10,NNE,22,5.6,8.0,57,0.00,,,0.00,Rainwise IP-100,2013-12-08 15:31:00,
2013-12-08 10:36:00,25.3,14.0,30.11,North,360,5.8,9.0,57,0.00,,,0.00,Rainwise IP-100,2013-12-08 15:36:00,
2013-12-08 10:41:00,25.4,14.0,30.10,NNE,22,0.0,8.0,56,0.00,,,0.00,Rainwise IP-100,2013-12-08 15:41:00,
2013-12-08 10:46:00,25.5,14.0,30.10,NNE,22,2.3,6.0,56,0.00,,,0.00,Rainwise IP-100,2013-12-08 15:46:00,
2013-12-08 10:51:00,25.6,14.0,30.10,NNE,22,7.0,7.0,56,0.00,,,0.00,Rainwise IP-100,2013-12-08 15:51:00,
2013-12-08 10:56:00,25.8,14.0,30.10,NE,45,7.0,10.0,56,0.00,,,0.00,Rainwise IP-100,2013-12-08 15:56:00,
2013-12-08 11:01:00,25.8,14.0,30.10,NNE,22,4.9,9.0,56,0.00,,,0.00,Rainwise IP-100,2013-12-08 16:01:00,
2013-12-08 11:06:00,25.9,14.0,30.09,SSE,157,1.6,8.0,56,0.00,,,0.00,Rainwise IP-100,2013-12-08 16:06:00,
2013-12-08 11:11:00,26.0,14.0,30.09,NNE,22,0.0,6.0,55,0.00,,,0.00,Rainwise IP-100,2013-12-08 16:11:00,
2013-12-08 11:16:00,26.1,14.0,30.09,North,360,5.1,8.0,55,0.00,,,0.00,Rainwise IP-100,2013-12-08 16:16:00,
2013-12-08 11:21:00,26.0,14.0,30.09,North,360,7.0,8.0,54,0.00,,,0.00,Rainwise IP-100,2013-12-08 16:21:00,
2013-12-08 11:26:00,26.0,14.0,30.08,NNW,337,4.2,8.0,54,0.00,,,0.00,Rainwise IP-100,2013-12-08 16:26:00,
2013-12-08 11:31:00,26.0,14.0,30.07,NNW,337,4.4,7.0,54,0.00,,,0.00,Rainwise IP-100,2013-12-08 16:31:00,
2013-12-08 11:36:00,26.1,14.0,30.07,NE,45,4.4,10.0,54,0.00,,,0.00,Rainwise IP-100,2013-12-08 16:36:00,
2013-12-08 11:41:00,26.2,14.0,30.07,NNE,22,6.5,9.0,54,0.00,,,0.00,Rainwise IP-100,2013-12-08 16:41:00,
2013-12-08 11:47:00,26.2,14.0,30.06,NNE,22,2.1,8.0,54,0.00,,,0.00,Rainwise IP-100,2013-12-08 16:47:00,
2013-12-08 11:52:00,26.3,14.0,30.07,NNW,337,3.7,5.0,54,0.00,,,0.00,Rainwise IP-100,2013-12-08 16:52:00,
2013-12-08 11:57:00,26.5,14.0,30.06,NE,45,4.9,8.0,54,0.00,,,0.00,Rainwise IP-100,2013-12-08 16:57:00,
2013-12-08 12:02:00,26.6,14.0,30.06,SSW,202,0.0,6.0,54,0.00,,,0.00,Rainwise IP-100,2013-12-08 17:02:00,
2013-12-08 12:07:00,26.7,14.0,30.06,South,180,0.0,4.0,54,0.00,,,0.00,Rainwise IP-100,2013-12-08 17:07:00,
2013-12-08 12:12:00,26.7,14.0,30.06,ENE,67,1.2,8.0,54,0.00,,,0.00,Rainwise IP-100,2013-12-08 17:12:00,
2013-12-08 12:17:00,26.8,14.0,30.07,NNW,337,3.3,5.0,53,0.00,,,0.00,Rainwise IP-100,2013-12-08 17:17:00,
2013-12-08 12:22:00,27.0,14.0,30.06,NNE,22,2.6,9.0,53,0.00,,,0.00,Rainwise IP-100,2013-12-08 17:22:00,
2013-12-08 12:27:00,26.8,14.0,30.06,NNW,337,4.0,6.0,53,0.00,,,0.00,Rainwise IP-100,2013-12-08 17:27:00,
2013-12-08 12:32:00,26.7,14.0,30.06,NNE,22,7.7,8.0,53,0.00,,,0.00,Rainwise IP-100,2013-12-08 17:32:00,
2013-12-08 12:37:00,26.6,14.0,30.06,NNW,337,4.2,8.0,53,0.00,,,0.00,Rainwise IP-100,2013-12-08 17:37:00,
2013-12-08 12:42:00,26.6,14.0,30.06,NE,45,4.2,7.0,53,0.00,,,0.00,Rainwise IP-100,2013-12-08 17:42:00,
2013-12-08 12:47:00,26.7,14.0,30.06,ENE,67,3.0,8.0,53,0.00,,,0.00,Rainwise IP-100,2013-12-08 17:47:00,
2013-12-08 12:52:00,26.6,14.0,30.06,NNE,22,6.3,7.0,53,0.00,,,0.00,Rainwise IP-100,2013-12-08 17:52:00,
2013-12-08 12:57:00,26.7,14.0,30.07,NNW,337,0.0,7.0,53,0.00,,,0.00,Rainwise IP-100,2013-12-08 17:57:00,
2013-12-08 13:03:00,26.9,14.0,30.06,NNE,22,2.8,7.0,52,0.00,,,0.00,Rainwise IP-100,2013-12-08 18:03:00,
2013-12-08 13:08:00,27.0,14.0,30.07,North,360,7.7,9.0,52,0.00,,,0.00,Rainwise IP-100,2013-12-08 18:08:00,
2013-12-08 13:13:00,27.0,14.0,30.06,NNE,22,6.8,8.0,52,0.00,,,0.00,Rainwise IP-100,2013-12-08 18:13:00,
2013-12-08 13:18:00,27.1,14.0,30.06,NNE,22,3.5,6.0,52,0.00,,,0.00,Rainwise IP-100,2013-12-08 18:18:00,
2013-12-08 13:23:00,27.2,14.0,30.06,NNE,22,4.4,6.0,52,0.00,,,0.00,Rainwise IP-100,2013-12-08 18:23:00,
2013-12-08 13:28:00,27.3,14.0,30.06,NE,45,2.6,10.0,52,0.00,,,0.00,Rainwise IP-100,2013-12-08 18:28:00,
2013-12-08 13:33:00,27.3,14.0,30.06,North,360,6.3,9.0,52,0.00,,,0.00,Rainwise IP-100,2013-12-08 18:33:00,
2013-12-08 13:38:00,27.3,14.0,30.06,NNW,337,2.1,8.0,52,0.00,,,0.00,Rainwise IP-100,2013-12-08 18:38:00,
2013-12-08 13:43:00,27.3,14.0,30.06,NNE,22,0.0,5.0,52,0.00,,,0.00,Rainwise IP-100,2013-12-08 18:43:00,
2013-12-08 13:48:00,27.4,14.0,30.06,NE,45,2.8,4.0,52,0.00,,,0.00,Rainwise IP-100,2013-12-08 18:48:00,
2013-12-08 13:53:00,27.5,14.0,30.05,North,360,0.0,5.0,52,0.00,,,0.00,Rainwise IP-100,2013-12-08 18:53:00,
2013-12-08 13:58:00,27.4,14.0,30.06,NNE,22,6.5,6.5,52,0.00,,,0.00,Rainwise IP-100,2013-12-08 18:58:00,
2013-12-08 14:03:00,27.4,14.0,30.06,NNE,22,0.0,7.0,51,0.00,,,0.00,Rainwise IP-100,2013-12-08 19:03:00,
2013-12-08 14:08:00,27.4,14.0,30.06,NNE,22,5.4,5.4,51,0.00,,,0.00,Rainwise IP-100,2013-12-08 19:08:00,
2013-12-08 14:13:00,27.4,14.0,30.04,NW,315,0.0,7.0,51,0.00,,,0.00,Rainwise IP-100,2013-12-08 19:13:00,
2013-12-08 14:19:00,27.7,14.0,30.04,NNE,22,3.0,3.0,53,0.00,,,0.00,Rainwise IP-100,2013-12-08 19:19:00,
2013-12-08 14:24:00,28.1,14.0,30.04,ENE,67,2.8,5.0,54,0.00,,,0.00,Rainwise IP-100,2013-12-08 19:24:00,
2013-12-08 14:29:00,28.4,14.0,30.04,South,180,1.4,5.0,54,0.00,,,0.00,Rainwise IP-100,2013-12-08 19:29:00,
2013-12-08 14:34:00,28.8,16.0,30.04,ENE,67,0.0,6.0,55,0.00,,,0.00,Rainwise IP-100,2013-12-08 19:34:00,
2013-12-08 14:39:00,29.3,16.0,30.05,NNE,22,4.0,5.0,55,0.00,,,0.00,Rainwise IP-100,2013-12-08 19:39:00,
2013-12-08 14:44:00,29.3,14.0,30.05,NNE,22,1.2,9.0,53,0.00,,,0.00,Rainwise IP-100,2013-12-08 19:44:00,
2013-12-08 14:49:00,29.0,14.0,30.05,NE,45,6.1,8.0,50,0.00,,,0.00,Rainwise IP-100,2013-12-08 19:49:00,
2013-12-08 14:54:00,28.8,14.0,30.05,NNE,22,7.7,8.0,49,0.00,,,0.00,Rainwise IP-100,2013-12-08 19:54:00,
2013-12-08 14:59:00,28.7,14.0,30.05,ENE,67,3.7,10.0,49,0.00,,,0.00,Rainwise IP-100,2013-12-08 19:59:00,
2013-12-08 15:04:00,28.8,14.0,30.06,North,360,6.3,6.3,48,0.00,,,0.00,Rainwise IP-100,2013-12-08 20:04:00,
2013-12-08 15:09:00,28.7,14.0,30.06,North,360,7.2,8.0,48,0.00,,,0.00,Rainwise IP-100,2013-12-08 20:09:00,
2013-12-08 15:14:00,28.3,11.0,30.06,NNE,22,4.0,8.0,48,0.00,,,0.00,Rainwise IP-100,2013-12-08 20:14:00,
2013-12-08 15:19:00,27.8,11.0,30.05,NNE,22,5.6,6.0,48,0.00,,,0.00,Rainwise IP-100,2013-12-08 20:19:00,
2013-12-08 15:24:00,27.5,11.0,30.05,NE,45,4.0,6.0,48,0.00,,,0.00,Rainwise IP-100,2013-12-08 20:24:00,
2013-12-08 15:29:00,27.3,11.0,30.06,NNE,22,2.8,7.0,49,0.00,,,0.00,Rainwise IP-100,2013-12-08 20:29:00,
2013-12-08 15:35:00,27.2,11.0,30.06,NNE,22,3.0,7.0,49,0.00,,,0.00,Rainwise IP-100,2013-12-08 20:35:00,
2013-12-08 15:40:00,26.9,11.0,30.06,NE,45,3.3,4.0,49,0.00,,,0.00,Rainwise IP-100,2013-12-08 20:40:00,
2013-12-08 15:45:00,26.8,14.0,30.06,NNE,22,2.6,6.0,50,0.00,,,0.00,Rainwise IP-100,2013-12-08 20:45:00,
2013-12-08 15:50:00,26.7,14.0,30.07,North,360,2.3,3.0,50,0.00,,,0.00,Rainwise IP-100,2013-12-08 20:50:00,
2013-12-08 15:55:00,26.6,14.0,30.06,NNE,22,3.5,4.0,51,0.00,,,0.00,Rainwise IP-100,2013-12-08 20:55:00,
2013-12-08 16:00:00,26.5,14.0,30.07,NNW,337,0.0,3.0,51,0.00,,,0.00,Rainwise IP-100,2013-12-08 21:00:00,
2013-12-08 16:05:00,26.5,14.0,30.07,NNW,337,0.0,1.0,51,0.00,,,0.00,Rainwise IP-100,2013-12-08 21:05:00,
2013-12-08 16:10:00,26.7,14.0,30.07,NNE,22,1.2,3.0,51,0.00,,,0.00,Rainwise IP-100,2013-12-08 21:10:00,
2013-12-08 16:15:00,26.6,14.0,30.07,NNE,22,1.4,2.0,51,0.00,,,0.00,Rainwise IP-100,2013-12-08 21:15:00,
2013-12-08 16:20:00,26.4,11.0,30.06,NNE,22,3.0,3.0,51,0.00,,,0.00,Rainwise IP-100,2013-12-08 21:20:00,
2013-12-08 16:25:00,26.2,11.0,30.06,NNE,22,2.3,4.0,52,0.00,,,0.00,Rainwise IP-100,2013-12-08 21:25:00,
2013-12-08 16:30:00,26.2,11.0,30.06,NNE,22,2.1,4.0,53,0.00,,,0.00,Rainwise IP-100,2013-12-08 21:30:00,
2013-12-08 16:35:00,26.3,11.0,30.06,NE,45,3.0,4.0,53,0.00,,,0.00,Rainwise IP-100,2013-12-08 21:35:00,
2013-12-08 16:40:00,26.3,14.0,30.06,NE,45,1.9,5.0,54,0.00,,,0.00,Rainwise IP-100,2013-12-08 21:40:00,
2013-12-08 16:45:00,26.4,14.0,30.05,North,360,2.6,4.0,54,0.00,,,0.00,Rainwise IP-100,2013-12-08 21:45:00,
2013-12-08 16:51:00,26.4,14.0,30.06,NNE,22,2.1,3.0,54,0.00,,,0.00,Rainwise IP-100,2013-12-08 21:51:00,
2013-12-08 16:56:00,26.3,14.0,30.06,NNE,22,0.0,4.0,54,0.00,,,0.00,Rainwise IP-100,2013-12-08 21:56:00,
2013-12-08 17:01:00,26.3,14.0,30.06,NNE,22,1.9,7.0,54,0.00,,,0.00,Rainwise IP-100,2013-12-08 22:01:00,
2013-12-08 17:06:00,26.2,14.0,30.06,North,360,3.0,4.0,54,0.00,,,0.00,Rainwise IP-100,2013-12-08 22:06:00,
2013-12-08 17:11:00,26.1,14.0,30.06,NNW,337,1.2,3.0,54,0.00,,,0.00,Rainwise IP-100,2013-12-08 22:11:00,
2013-12-08 17:16:00,26.0,14.0,30.07,NNW,337,0.0,1.0,54,0.00,,,0.00,Rainwise IP-100,2013-12-08 22:16:00,
2013-12-08 17:21:00,26.0,14.0,30.07,NNW,337,1.6,1.6,54,0.00,,,0.00,Rainwise IP-100,2013-12-08 22:21:00,
2013-12-08 17:26:00,26.0,14.0,30.07,NNW,337,0.0,2.0,54,0.00,,,0.00,Rainwise IP-100,2013-12-08 22:26:00,
2013-12-08 17:31:00,26.0,14.0,30.07,NNW,337,0.0,1.0,54,0.00,,,0.00,Rainwise IP-100,2013-12-08 22:31:00,
2013-12-08 17:36:00,26.0,14.0,30.07,NNW,337,0.0,0.0,55,0.00,,,0.00,Rainwise IP-100,2013-12-08 22:36:00,
2013-12-08 17:41:00,25.8,14.0,30.07,NNW,337,0.0,1.0,55,0.00,,,0.00,Rainwise IP-100,2013-12-08 22:41:00,
2013-12-08 17:46:00,25.6,14.0,30.07,North,360,4.0,4.0,56,0.00,,,0.00,Rainwise IP-100,2013-12-08 22:46:00,
2013-12-08 17:51:00,25.6,14.0,30.06,NNE,22,1.9,4.0,57,0.00,,,0.00,Rainwise IP-100,2013-12-08 22:51:00,
2013-12-08 17:56:00,25.6,14.0,30.06,NNE,22,3.7,5.0,58,0.00,,,0.00,Rainwise IP-100,2013-12-08 22:56:00,
2013-12-08 18:01:00,25.6,14.0,30.06,NNE,22,2.1,4.0,58,0.00,,,0.00,Rainwise IP-100,2013-12-08 23:01:00,
2013-12-08 18:07:00,25.7,14.0,30.06,NNE,22,4.0,5.0,58,0.00,,,0.00,Rainwise IP-100,2013-12-08 23:07:00,
2013-12-08 18:12:00,25.7,14.0,30.05,NNE,22,3.7,7.0,57,0.00,,,0.00,Rainwise IP-100,2013-12-08 23:12:00,
2013-12-08 18:17:00,25.6,14.0,30.05,NNW,337,7.0,7.0,56,0.00,,,0.00,Rainwise IP-100,2013-12-08 23:17:00,
2013-12-08 18:22:00,25.6,14.0,30.05,NNE,22,4.9,7.0,56,0.00,,,0.00,Rainwise IP-100,2013-12-08 23:22:00,
2013-12-08 18:27:00,25.5,14.0,30.05,NNW,337,4.4,6.0,56,0.00,,,0.00,Rainwise IP-100,2013-12-08 23:27:00,
2013-12-08 18:32:00,25.5,14.0,30.06,NE,45,1.4,6.0,56,0.00,,,0.00,Rainwise IP-100,2013-12-08 23:32:00,
2013-12-08 18:37:00,25.5,14.0,30.06,North,360,1.9,4.0,56,0.00,,,0.00,Rainwise IP-100,2013-12-08 23:37:00,
2013-12-08 18:42:00,25.6,14.0,30.05,North,360,0.0,3.0,56,0.00,,,0.00,Rainwise IP-100,2013-12-08 23:42:00,
2013-12-08 18:47:00,25.5,14.0,30.06,North,360,2.3,3.0,56,0.00,,,0.00,Rainwise IP-100,2013-12-08 23:47:00,
2013-12-08 18:52:00,25.5,14.0,30.06,North,360,0.0,4.0,56,0.00,,,0.00,Rainwise IP-100,2013-12-08 23:52:00,
2013-12-08 18:57:00,25.5,14.0,30.06,North,360,0.0,1.0,56,0.00,,,0.00,Rainwise IP-100,2013-12-08 23:57:00,
2013-12-08 19:02:00,25.5,14.0,30.06,North,360,2.3,3.0,56,0.00,,,0.00,Rainwise IP-100,2013-12-09 00:02:00,
2013-12-08 19:07:00,25.5,14.0,30.06,North,360,2.8,2.8,56,0.00,,,0.00,Rainwise IP-100,2013-12-09 00:07:00,
2013-12-08 19:12:00,25.5,14.0,30.05,North,360,0.0,2.0,56,0.00,,,0.00,Rainwise IP-100,2013-12-09 00:12:00,
2013-12-08 19:17:00,25.5,14.0,30.06,North,360,1.9,2.0,56,0.00,,,0.00,Rainwise IP-100,2013-12-09 00:17:00,
2013-12-08 19:23:00,25.4,14.0,30.06,North,360,2.3,2.3,56,0.00,,,0.00,Rainwise IP-100,2013-12-09 00:23:00,
2013-12-08 19:28:00,25.3,14.0,30.06,North,360,1.2,2.0,56,0.00,,,0.00,Rainwise IP-100,2013-12-09 00:28:00,
2013-12-08 19:33:00,25.4,14.0,30.06,North,360,2.1,3.0,56,0.00,,,0.00,Rainwise IP-100,2013-12-09 00:33:00,
2013-12-08 19:38:00,25.4,14.0,30.06,North,360,0.0,3.0,57,0.00,,,0.00,Rainwise IP-100,2013-12-09 00:38:00,
2013-12-08 19:43:00,25.4,14.0,30.06,North,360,1.6,3.0,57,0.00,,,0.00,Rainwise IP-100,2013-12-09 00:43:00,
2013-12-08 19:48:00,25.3,14.0,30.06,North,360,0.0,3.0,57,0.00,,,0.00,Rainwise IP-100,2013-12-09 00:48:00,
2013-12-08 19:53:00,25.3,14.0,30.06,North,360,0.0,0.0,58,0.00,,,0.00,Rainwise IP-100,2013-12-09 00:53:00,
2013-12-08 19:58:00,25.3,14.0,30.06,North,360,0.0,1.0,58,0.00,,,0.00,Rainwise IP-100,2013-12-09 00:58:00,
2013-12-08 20:03:00,25.3,14.0,30.06,North,360,0.0,1.0,58,0.00,,,0.00,Rainwise IP-100,2013-12-09 01:03:00,
2013-12-08 20:08:00,25.3,14.0,30.07,North,360,0.0,1.0,58,0.00,,,0.00,Rainwise IP-100,2013-12-09 01:08:00,
2013-12-08 20:13:00,25.4,14.0,30.07,North,360,0.0,1.0,58,0.00,,,0.00,Rainwise IP-100,2013-12-09 01:13:00,
2013-12-08 20:18:00,25.5,14.0,30.06,North,360,1.4,1.4,59,0.00,,,0.00,Rainwise IP-100,2013-12-09 01:18:00,
2013-12-08 20:23:00,25.6,14.0,30.05,North,360,0.0,2.0,59,0.00,,,0.00,Rainwise IP-100,2013-12-09 01:23:00,
2013-12-08 20:28:00,25.5,14.0,30.05,North,360,0.0,0.0,59,0.00,,,0.00,Rainwise IP-100,2013-12-09 01:28:00,
2013-12-08 20:33:00,25.4,14.0,30.05,NNE,22,0.0,1.0,59,0.00,,,0.00,Rainwise IP-100,2013-12-09 01:33:00,
2013-12-08 20:39:00,25.5,14.0,30.04,East,90,0.0,2.0,59,0.00,,,0.00,Rainwise IP-100,2013-12-09 01:39:00,
2013-12-08 20:44:00,25.6,14.0,30.05,South,180,0.0,1.0,59,0.00,,,0.00,Rainwise IP-100,2013-12-09 01:44:00,
2013-12-08 20:49:00,25.5,14.0,30.06,SW,225,0.0,0.0,59,0.00,,,0.00,Rainwise IP-100,2013-12-09 01:49:00,
2013-12-08 20:54:00,25.5,14.0,30.06,WNW,292,0.0,0.0,59,0.00,,,0.00,Rainwise IP-100,2013-12-09 01:54:00,
2013-12-08 20:59:00,25.5,14.0,30.05,NNE,22,1.6,2.0,59,0.00,,,0.00,Rainwise IP-100,2013-12-09 01:59:00,
2013-12-08 21:04:00,25.5,14.0,30.05,NNE,22,1.2,3.0,59,0.00,,,0.00,Rainwise IP-100,2013-12-09 02:04:00,
2013-12-08 21:09:00,25.5,14.0,30.05,North,360,0.0,3.0,59,0.00,,,0.00,Rainwise IP-100,2013-12-09 02:09:00,
2013-12-08 21:14:00,25.5,14.0,30.06,North,360,0.0,0.0,59,0.00,,,0.00,Rainwise IP-100,2013-12-09 02:14:00,
2013-12-08 21:19:00,25.5,14.0,30.06,North,360,0.0,2.0,59,0.00,,,0.00,Rainwise IP-100,2013-12-09 02:19:00,
2013-12-08 21:24:00,25.5,14.0,30.06,North,360,1.6,2.0,59,0.00,,,0.00,Rainwise IP-100,2013-12-09 02:24:00,
2013-12-08 21:29:00,25.5,14.0,30.06,North,360,2.1,3.0,60,0.00,,,0.00,Rainwise IP-100,2013-12-09 02:29:00,
2013-12-08 21:34:00,25.4,14.0,30.05,North,360,0.0,2.0,60,0.00,,,0.00,Rainwise IP-100,2013-12-09 02:34:00,
2013-12-08 21:39:00,25.3,16.0,30.05,North,360,0.0,1.0,61,0.00,,,0.00,Rainwise IP-100,2013-12-09 02:39:00,
2013-12-08 21:44:00,25.3,16.0,30.05,North,360,0.0,1.0,61,0.00,,,0.00,Rainwise IP-100,2013-12-09 02:44:00,
2013-12-08 21:49:00,25.3,16.0,30.04,North,360,0.0,1.0,61,0.00,,,0.00,Rainwise IP-100,2013-12-09 02:49:00,
2013-12-08 21:55:00,25.3,16.0,30.04,North,360,0.0,1.0,62,0.00,,,0.00,Rainwise IP-100,2013-12-09 02:55:00,
2013-12-08 22:00:00,25.3,16.0,30.04,North,360,0.0,1.0,62,0.00,,,0.00,Rainwise IP-100,2013-12-09 03:00:00,
2013-12-08 22:05:00,25.3,16.0,30.04,North,360,0.0,1.0,62,0.00,,,0.00,Rainwise IP-100,2013-12-09 03:05:00,
2013-12-08 22:10:00,25.3,16.0,30.03,North,360,0.0,2.0,62,0.00,,,0.00,Rainwise IP-100,2013-12-09 03:10:00,
2013-12-08 22:15:00,25.3,16.0,30.03,North,360,0.0,1.0,61,0.00,,,0.00,Rainwise IP-100,2013-12-09 03:15:00,
2013-12-08 22:20:00,25.3,16.0,30.04,North,360,1.6,2.0,61,0.00,,,0.00,Rainwise IP-100,2013-12-09 03:20:00,
2013-12-08 22:25:00,25.4,16.0,30.02,North,360,2.1,3.0,61,0.00,,,0.00,Rainwise IP-100,2013-12-09 03:25:00,
2013-12-08 22:30:00,25.4,14.0,30.02,North,360,1.4,3.0,60,0.00,,,0.00,Rainwise IP-100,2013-12-09 03:30:00,
2013-12-08 22:35:00,25.4,16.0,30.03,North,360,0.0,3.0,61,0.00,,,0.00,Rainwise IP-100,2013-12-09 03:35:00,
2013-12-08 22:40:00,25.5,16.0,30.03,ENE,67,1.4,3.0,61,0.00,,,0.00,Rainwise IP-100,2013-12-09 03:40:00,
2013-12-08 22:45:00,25.5,16.0,30.03,ENE,67,0.0,2.0,61,0.00,,,0.00,Rainwise IP-100,2013-12-09 03:45:00,
2013-12-08 22:50:00,25.4,16.0,30.03,NNW,337,2.3,4.0,61,0.00,,,0.00,Rainwise IP-100,2013-12-09 03:50:00,
2013-12-08 22:55:00,25.3,16.0,30.03,NNW,337,1.6,3.0,61,0.00,,,0.00,Rainwise IP-100,2013-12-09 03:55:00,
2013-12-08 23:00:00,25.3,16.0,30.03,ENE,67,2.6,4.0,62,0.00,,,0.00,Rainwise IP-100,2013-12-09 04:00:00,
2013-12-08 23:05:00,25.4,16.0,30.03,NNW,337,3.5,4.0,61,0.00,,,0.00,Rainwise IP-100,2013-12-09 04:05:00,
2013-12-08 23:11:00,25.5,16.0,30.02,West,270,0.0,3.0,61,0.00,,,0.00,Rainwise IP-100,2013-12-09 04:11:00,
2013-12-08 23:16:00,25.5,14.0,30.03,NNE,22,1.6,3.0,60,0.00,,,0.00,Rainwise IP-100,2013-12-09 04:16:00,
2013-12-08 23:21:00,25.5,14.0,30.02,NNE,22,0.0,2.0,60,0.00,,,0.00,Rainwise IP-100,2013-12-09 04:21:00,
2013-12-08 23:26:00,25.6,14.0,30.02,East,90,1.2,5.0,60,0.00,,,0.00,Rainwise IP-100,2013-12-09 04:26:00,
2013-12-08 23:31:00,25.6,14.0,30.02,NW,315,0.0,7.0,59,0.00,,,0.00,Rainwise IP-100,2013-12-09 04:31:00,
2013-12-08 23:36:00,25.6,14.0,30.02,NNE,22,0.0,4.0,59,0.00,,,0.00,Rainwise IP-100,2013-12-09 04:36:00,
2013-12-08 23:41:00,25.7,14.0,30.01,North,360,2.3,3.0,59,0.00,,,0.00,Rainwise IP-100,2013-12-09 04:41:00,
2013-12-08 23:46:00,25.6,14.0,30.02,North,360,2.3,5.0,59,0.00,,,0.00,Rainwise IP-100,2013-12-09 04:46:00,
2013-12-08 23:51:00,25.6,14.0,30.01,SE,135,0.0,3.0,59,0.00,,,0.00,Rainwise IP-100,2013-12-09 04:51:00,
2013-12-08 23:56:00,25.6,14.0,30.00,East,90,0.0,3.0,59,0.00,,,0.00,Rainwise IP-100,2013-12-09 04:56:00,